Time,TemperatureF,DewpointF,PressureIn,WindDirection,WindDirectionDegrees,WindSpeedMPH,WindSpeedGustMPH,Humidity,HourlyPrecipIn,Conditions,Clouds,dailyrainin,SoftwareType,DateUTC
2013-01-27 00:04:00,37.6,34.0,29.72,SW,235,0.0,0.0,88,0.00,,,0.00,weatherlink.com 1.10,2013-01-27 07:04:00,
2013-01-27 00:19:00,37.1,34.0,29.71,SW,235,0.0,0.0,89,0.00,,,0.00,weatherlink.com 1.10,2013-01-27 07:19:00,
2013-01-27 00:34:00,36.9,35.0,29.71,SW,235,0.0,0.0,91,0.00,,,0.00,weatherlink.com 1.10,2013-01-27 07:34:00,
2013-01-27 00:49:00,36.6,34.0,29.70,SW,235,0.0,0.0,90,0.00,,,0.00,weatherlink.com 1.10,2013-01-27 07:49:00,
2013-01-27 01:04:00,36.0,34.0,29.70,SW,235,0.0,0.0,91,0.00,,,0.00,weatherlink.com 1.10,2013-01-27 08:04:00,
2013-01-27 01:19:00,35.5,33.0,29.69,SW,235,0.0,0.0,92,0.00,,,0.00,weatherlink.com 1.10,2013-01-27 08:19:00,
2013-01-27 01:34:00,35.6,34.0,29.70,SW,235,0.0,0.0,92,0.00,,,0.00,weatherlink.com 1.10,2013-01-27 08:34:00,
2013-01-27 01:49:00,35.1,33.0,29.69,SW,235,0.0,0.0,91,0.00,,,0.00,weatherlink.com 1.10,2013-01-27 08:49:00,
2013-01-27 02:04:00,34.5,32.0,29.69,SW,235,0.0,0.0,91,0.00,,,0.00,weatherlink.com 1.10,2013-01-27 09:04:00,
2013-01-27 02:19:00,34.0,32.0,29.69,SW,235,0.0,0.0,92,0.00,,,0.00,weatherlink.com 1.10,2013-01-27 09:19:00,
2013-01-27 02:34:00,34.0,32.0,29.69,SW,235,0.0,0.0,93,0.00,,,0.00,weatherlink.com 1.10,2013-01-27 09:34:00,
2013-01-27 02:49:00,33.8,32.0,29.69,SW,235,0.0,0.0,93,0.00,,,0.00,weatherlink.com 1.10,2013-01-27 09:49:00,
2013-01-27 03:04:00,33.8,32.0,29.68,SSW,201,0.0,1.0,93,0.00,,,0.00,weatherlink.com 1.10,2013-01-27 10:04:00,
2013-01-27 03:19:00,33.7,32.0,29.69,SSW,203,0.0,1.0,93,0.00,,,0.00,weatherlink.com 1.10,2013-01-27 10:19:00,
2013-01-27 03:34:00,33.6,32.0,29.68,SSW,203,0.0,1.0,93,0.00,,,0.00,weatherlink.com 1.10,2013-01-27 10:34:00,
2013-01-27 03:49:00,33.5,32.0,29.68,SW,219,0.0,1.0,93,0.00,,,0.00,weatherlink.com 1.10,2013-01-27 10:49:00,
2013-01-27 04:04:00,33.0,31.0,29.68,SW,220,0.0,0.0,92,0.00,,,0.00,weatherlink.com 1.10,2013-01-27 11:04:00,
2013-01-27 04:20:00,32.8,31.0,29.68,SSW,194,0.0,1.0,93,0.00,,,0.00,weatherlink.com 1.10,2013-01-27 11:20:00,
2013-01-27 04:35:00,32.9,31.0,29.68,SSE,158,0.0,0.0,93,0.00,,,0.00,weatherlink.com 1.10,2013-01-27 11:35:00,
2013-01-27 04:50:00,32.6,31.0,29.67,SSE,158,0.0,0.0,92,0.00,,,0.00,weatherlink.com 1.10,2013-01-27 11:50:00,
2013-01-27 05:05:00,31.8,30.0,29.68,SSE,158,0.0,0.0,93,0.00,,,0.00,weatherlink.com 1.10,2013-01-27 12:05:00,
2013-01-27 05:20:00,31.8,30.0,29.68,SSE,165,0.0,1.0,93,0.00,,,0.00,weatherlink.com 1.10,2013-01-27 12:20:00,
2013-01-27 05:35:00,31.8,30.0,29.68,SW,215,0.0,2.0,93,0.00,,,0.00,weatherlink.com 1.10,2013-01-27 12:35:00,
2013-01-27 05:50:00,31.5,30.0,29.68,South,183,0.0,1.0,92,0.00,,,0.00,weatherlink.com 1.10,2013-01-27 12:50:00,
2013-01-27 06:05:00,30.8,29.0,29.69,South,181,0.0,0.0,92,0.00,,,0.00,weatherlink.com 1.10,2013-01-27 13:05:00,
2013-01-27 06:20:00,30.4,29.0,29.69,South,177,0.0,1.0,93,0.00,,,0.00,weatherlink.com 1.10,2013-01-27 13:20:00,
2013-01-27 06:35:00,30.3,29.0,29.70,SSE,159,0.0,1.0,93,0.00,,,0.00,weatherlink.com 1.10,2013-01-27 13:35:00,
2013-01-27 06:50:00,30.3,29.0,29.70,SSE,159,0.0,1.0,93,0.00,,,0.00,weatherlink.com 1.10,2013-01-27 13:50:00,
2013-01-27 07:05:00,29.8,28.0,29.72,SSE,159,0.0,0.0,93,0.00,,,0.00,weatherlink.com 1.10,2013-01-27 14:05:00,
2013-01-27 07:20:00,29.4,28.0,29.73,SSE,160,0.0,0.0,93,0.00,,,0.00,weatherlink.com 1.10,2013-01-27 14:20:00,
2013-01-27 07:35:00,29.2,28.0,29.73,SSE,159,0.0,0.0,94,0.00,,,0.00,weatherlink.com 1.10,2013-01-27 14:35:00,
2013-01-27 07:50:00,29.6,28.0,29.73,SSE,160,0.0,1.0,94,0.00,,,0.00,weatherlink.com 1.10,2013-01-27 14:50:00,
2013-01-27 08:05:00,30.2,29.0,29.73,WSW,241,1.0,1.0,93,0.00,,,0.00,weatherlink.com 1.10,2013-01-27 15:05:00,
2013-01-27 08:20:00,31.0,29.0,29.73,SSW,200,0.0,2.0,92,0.00,,,0.00,weatherlink.com 1.10,2013-01-27 15:20:00,
2013-01-27 08:35:00,31.7,29.0,29.73,SW,218,0.0,1.0,91,0.00,,,0.00,weatherlink.com 1.10,2013-01-27 15:35:00,
2013-01-27 08:50:00,33.1,31.0,29.74,SSE,158,1.0,3.0,90,0.00,,,0.00,weatherlink.com 1.10,2013-01-27 15:50:00,
2013-01-27 09:05:00,34.0,31.0,29.75,WSW,244,0.0,4.0,88,0.00,,,0.00,weatherlink.com 1.10,2013-01-27 16:05:00,
2013-01-27 09:20:00,34.4,31.0,29.75,South,172,1.0,2.0,88,0.00,,,0.00,weatherlink.com 1.10,2013-01-27 16:20:00,
2013-01-27 09:35:00,36.0,32.0,29.74,SSW,200,1.0,2.0,86,0.00,,,0.00,weatherlink.com 1.10,2013-01-27 16:35:00,
2013-01-27 09:50:00,38.1,34.0,29.75,SSW,200,1.0,4.0,84,0.00,,,0.00,weatherlink.com 1.10,2013-01-27 16:50:00,
2013-01-27 10:05:00,40.2,35.0,29.75,SW,218,1.0,5.0,80,0.00,,,0.00,weatherlink.com 1.10,2013-01-27 17:05:00,
2013-01-27 10:20:00,43.7,37.0,29.74,SSE,164,2.0,3.0,78,0.00,,,0.00,weatherlink.com 1.10,2013-01-27 17:20:00,
2013-01-27 10:35:00,45.7,38.0,29.73,SSE,153,1.0,4.0,74,0.00,,,0.00,weatherlink.com 1.10,2013-01-27 17:35:00,
2013-01-27 10:50:00,46.9,38.0,29.73,South,174,1.0,3.0,70,0.00,,,0.00,weatherlink.com 1.10,2013-01-27 17:50:00,
2013-01-27 11:05:00,47.9,37.0,29.73,WSW,238,1.0,3.0,67,0.00,,,0.00,weatherlink.com 1.10,2013-01-27 18:05:00,
2013-01-27 11:21:00,48.5,37.0,29.72,SW,233,0.0,3.0,64,0.00,,,0.00,weatherlink.com 1.10,2013-01-27 18:21:00,
2013-01-27 11:36:00,50.0,37.0,29.71,SE,146,0.0,2.0,61,0.00,,,0.00,weatherlink.com 1.10,2013-01-27 18:36:00,
2013-01-27 11:51:00,51.3,37.0,29.71,SW,222,2.0,2.0,58,0.00,,,0.00,weatherlink.com 1.10,2013-01-27 18:51:00,
2013-01-27 12:06:00,52.7,35.0,29.69,East,86,0.0,2.0,52,0.00,,,0.00,weatherlink.com 1.10,2013-01-27 19:06:00,
2013-01-27 12:21:00,53.9,35.0,29.68,ENE,66,1.0,2.0,50,0.00,,,0.00,weatherlink.com 1.10,2013-01-27 19:21:00,
2013-01-27 12:36:00,54.5,34.0,29.68,East,79,2.0,4.0,47,0.00,,,0.00,weatherlink.com 1.10,2013-01-27 19:36:00,
2013-01-27 12:51:00,54.6,34.0,29.67,North,6,1.0,3.0,46,0.00,,,0.00,weatherlink.com 1.10,2013-01-27 19:51:00,
2013-01-27 13:06:00,55.0,34.0,29.66,East,83,1.0,3.0,45,0.00,,,0.00,weatherlink.com 1.10,2013-01-27 20:06:00,
2013-01-27 13:21:00,56.1,34.0,29.66,SE,141,0.0,2.0,44,0.00,,,0.00,weatherlink.com 1.10,2013-01-27 20:21:00,
2013-01-27 13:36:00,57.0,33.0,29.65,East,101,0.0,3.0,41,0.00,,,0.00,weatherlink.com 1.10,2013-01-27 20:36:00,
2013-01-27 13:51:00,57.5,34.0,29.65,SSW,195,0.0,4.0,41,0.00,,,0.00,weatherlink.com 1.10,2013-01-27 20:51:00,
2013-01-27 14:06:00,57.4,34.0,29.65,ESE,109,0.0,3.0,41,0.00,,,0.00,weatherlink.com 1.10,2013-01-27 21:06:00,
2013-01-27 14:21:00,58.5,33.0,29.64,East,99,1.0,4.0,38,0.00,,,0.00,weatherlink.com 1.10,2013-01-27 21:21:00,
2013-01-27 14:36:00,59.2,32.0,29.64,SE,136,1.0,3.0,36,0.00,,,0.00,weatherlink.com 1.10,2013-01-27 21:36:00,
2013-01-27 14:51:00,59.5,32.0,29.65,ENE,67,1.0,3.0,35,0.00,,,0.00,weatherlink.com 1.10,2013-01-27 21:51:00,
2013-01-27 15:06:00,60.0,31.0,29.64,ENE,78,2.0,3.0,34,0.00,,,0.00,weatherlink.com 1.10,2013-01-27 22:06:00,
2013-01-27 15:21:00,59.7,32.0,29.64,ESE,108,0.0,4.0,35,0.00,,,0.00,weatherlink.com 1.10,2013-01-27 22:21:00,
2013-01-27 15:36:00,58.9,32.0,29.64,SE,138,3.0,3.0,36,0.00,,,0.00,weatherlink.com 1.10,2013-01-27 22:36:00,
2013-01-27 15:51:00,57.7,31.0,29.64,East,96,2.0,4.0,37,0.00,,,0.00,weatherlink.com 1.10,2013-01-27 22:51:00,
2013-01-27 16:06:00,56.8,31.0,29.64,East,97,2.0,5.0,38,0.00,,,0.00,weatherlink.com 1.10,2013-01-27 23:06:00,
2013-01-27 16:21:00,56.0,31.0,29.63,ENE,78,3.0,6.0,39,0.00,,,0.00,weatherlink.com 1.10,2013-01-27 23:21:00,
2013-01-27 16:36:00,55.3,32.0,29.64,East,86,1.0,4.0,41,0.00,,,0.00,weatherlink.com 1.10,2013-01-27 23:36:00,
2013-01-27 16:51:00,54.3,32.0,29.64,ENE,71,1.0,3.0,43,0.00,,,0.00,weatherlink.com 1.10,2013-01-27 23:51:00,
2013-01-27 17:06:00,53.1,32.0,29.64,East,81,3.0,3.0,45,0.00,,,0.00,weatherlink.com 1.10,2013-01-28 00:06:00,
2013-01-27 17:21:00,51.9,32.0,29.63,East,87,0.0,5.0,47,0.00,,,0.00,weatherlink.com 1.10,2013-01-28 00:21:00,
2013-01-27 17:36:00,50.8,33.0,29.64,ENE,72,1.0,5.0,50,0.00,,,0.00,weatherlink.com 1.10,2013-01-28 00:36:00,
2013-01-27 17:51:00,50.0,32.0,29.64,SE,130,0.0,5.0,51,0.00,,,0.00,weatherlink.com 1.10,2013-01-28 00:51:00,
2013-01-27 18:06:00,49.1,31.0,29.65,NNW,347,0.0,3.0,51,0.00,,,0.00,weatherlink.com 1.10,2013-01-28 01:06:00,
2013-01-27 18:21:00,48.9,30.0,29.65,East,89,0.0,3.0,49,0.00,,,0.00,weatherlink.com 1.10,2013-01-28 01:21:00,
2013-01-27 18:36:00,49.2,29.0,29.65,SE,141,0.0,3.0,45,0.00,,,0.00,weatherlink.com 1.10,2013-01-28 01:36:00,
2013-01-27 18:51:00,49.5,26.0,29.66,SSE,148,0.0,3.0,41,0.00,,,0.00,weatherlink.com 1.10,2013-01-28 01:51:00,
2013-01-27 19:06:00,49.0,26.0,29.67,South,181,2.0,3.0,41,0.00,,,0.00,weatherlink.com 1.10,2013-01-28 02:06:00,
2013-01-27 19:21:00,48.3,27.0,29.67,WSW,245,0.0,3.0,43,0.00,,,0.00,weatherlink.com 1.10,2013-01-28 02:21:00,
2013-01-27 19:36:00,47.5,27.0,29.67,SE,146,0.0,3.0,45,0.00,,,0.00,weatherlink.com 1.10,2013-01-28 02:36:00,
2013-01-27 19:51:00,45.7,29.0,29.68,WNW,287,0.0,1.0,52,0.00,,,0.00,weatherlink.com 1.10,2013-01-28 02:51:00,
2013-01-27 20:06:00,44.0,29.0,29.68,SW,226,0.0,0.0,56,0.00,,,0.00,weatherlink.com 1.10,2013-01-28 03:06:00,
2013-01-27 20:21:00,41.9,29.0,29.69,SW,226,0.0,0.0,60,0.00,,,0.00,weatherlink.com 1.10,2013-01-28 03:21:00,
2013-01-27 20:36:00,40.9,29.0,29.69,SE,134,0.0,1.0,62,0.00,,,0.00,weatherlink.com 1.10,2013-01-28 03:36:00,
2013-01-27 20:51:00,41.5,24.0,29.69,ESE,109,0.0,0.0,51,0.00,,,0.00,weatherlink.com 1.10,2013-01-28 03:51:00,
2013-01-27 21:06:00,40.2,23.0,29.69,ESE,108,0.0,0.0,51,0.00,,,0.00,weatherlink.com 1.10,2013-01-28 04:06:00,
2013-01-27 21:21:00,39.6,21.0,29.69,ESE,109,0.0,1.0,48,0.00,,,0.00,weatherlink.com 1.10,2013-01-28 04:21:00,
2013-01-27 21:36:00,41.3,21.0,29.69,ESE,108,0.0,0.0,45,0.00,,,0.00,weatherlink.com 1.10,2013-01-28 04:36:00,
2013-01-27 21:51:00,41.7,21.0,29.69,ESE,109,0.0,0.0,44,0.00,,,0.00,weatherlink.com 1.10,2013-01-28 04:51:00,
2013-01-27 22:07:00,41.1,23.0,29.69,South,177,0.0,2.0,48,0.00,,,0.00,weatherlink.com 1.10,2013-01-28 05:07:00,
2013-01-27 22:22:00,40.9,22.0,29.68,South,176,0.0,0.0,48,0.00,,,0.00,weatherlink.com 1.10,2013-01-28 05:22:00,
2013-01-27 22:37:00,38.8,22.0,29.68,South,176,0.0,0.0,52,0.00,,,0.00,weatherlink.com 1.10,2013-01-28 05:37:00,
2013-01-27 22:52:00,38.8,24.0,29.68,SSE,161,0.0,1.0,55,0.00,,,0.00,weatherlink.com 1.10,2013-01-28 05:52:00,
2013-01-27 23:07:00,41.7,26.0,29.68,SSE,167,1.0,4.0,53,0.00,,,0.00,weatherlink.com 1.10,2013-01-28 06:07:00,
2013-01-27 23:22:00,42.1,27.0,29.67,East,83,1.0,4.0,55,0.00,,,0.00,weatherlink.com 1.10,2013-01-28 06:22:00,
2013-01-27 23:37:00,42.2,27.0,29.67,ESE,110,0.0,4.0,55,0.00,,,0.00,weatherlink.com 1.10,2013-01-28 06:37:00,
2013-01-27 23:52:00,42.2,27.0,29.66,SSW,204,1.0,3.0,55,0.00,,,0.00,weatherlink.com 1.10,2013-01-28 06:52:00,